Location: Newark
(50.4915°N, 30.7416°E)
Time: 13:27:49
(UTC+00:00)

Envisat - Visible Passes

Search period start: 15 December 2019 00:00
Search period end: 25 December 2019 00:00
Orbit: 764 x 766 km, 98.1° (Epoch: 15 December)

Date Brightness Start Highest point End Pass type
(mag) Time Alt. Az. Time Alt. Az. Time Alt. Az.
15 Dec 6.1 03:16:53 10° ENE 03:18:59 12° E 03:21:05 10° ESE visible
15 Dec 3.2 04:53:44 10° NNE 04:58:52 79° ESE 05:03:57 10° S visible
15 Dec 3.8 14:35:11 10° ESE 14:39:27 28° ENE 14:43:43 10° N visible
15 Dec 3.9 16:13:19 10° S 16:18:14 50° W 16:23:12 10° NNW visible
16 Dec 4.5 04:17:09 10° NNE 04:21:57 40° E 04:26:42 10° SSE visible
16 Dec 2.9 15:36:18 10° SSE 15:41:23 82° ENE 15:46:30 10° NNW visible
16 Dec 5.8 17:17:59 10° SW 17:21:05 16° W 17:24:11 10° NW visible
17 Dec 5.7 03:41:04 10° NE 03:44:51 20° E 03:48:35 10° SE visible
17 Dec 3.3 14:59:58 10° SE 15:04:44 43° ENE 15:09:32 10° N visible
17 Dec 4.8 16:39:24 10° SSW 16:43:53 31° W 16:48:25 10° NNW visible
18 Dec 3.5 04:42:29 10° NNE 04:47:34 65° ESE 04:52:36 10° S visible
18 Dec 3.5 16:01:53 10° S 16:06:54 62° WSW 16:11:58 10° NNW visible
19 Dec 4.9 04:06:01 10° NNE 04:10:35 33° E 04:15:08 10° SSE visible
19 Dec 2.9 15:25:05 10° SSE 15:30:07 68° ENE 15:35:12 10° N visible
19 Dec 5.5 17:06:00 10° SW 17:09:38 20° W 17:13:19 10° NW visible
20 Dec 5.9 03:30:11 10° NE 03:33:25 17° E 03:36:38 10° SE visible
20 Dec 3.0 05:07:57 10° NNE 05:13:04 79° WNW 05:18:09 10° SSW visible
20 Dec 3.5 14:48:56 10° SE 14:53:31 35° ENE 14:58:08 10° N visible
20 Dec 4.4 16:27:48 10° SSW 16:32:31 38° W 16:37:17 10° NNW visible
21 Dec 3.9 04:31:15 10° NNE 04:36:15 53° E 04:41:12 10° S visible
21 Dec 3.1 15:50:31 10° S 15:55:37 76° WSW 16:00:43 10° NNW visible
21 Dec 6.1 17:33:40 10° WSW 17:35:31 12° W 17:37:22 10° WNW visible
22 Dec 5.2 03:54:55 10° NE 03:59:13 27° E 04:03:28 10° SSE visible
22 Dec 3.0 15:13:55 10° SE 15:18:52 56° ENE 15:23:51 10° N visible
22 Dec 5.3 16:54:10 10° SW 16:58:14 24° W 17:02:20 10° NW visible
23 Dec 6.1 03:19:29 10° NE 03:21:58 14° E 03:24:28 10° ESE visible
23 Dec 3.1 04:56:39 10° NNE 05:01:47 85° ESE 05:06:53 10° SSW visible
23 Dec 3.8 14:37:58 10° ESE 14:42:20 30° ENE 14:46:42 10° N visible
23 Dec 4.0 16:16:18 10° S 16:21:10 47° W 16:26:06 10° NNW visible
24 Dec 4.3 04:20:03 10° NNE 04:24:54 43° E 04:29:43 10° S visible
24 Dec 2.9 15:39:14 10° SSE 15:44:19 88° ENE 15:49:26 10° NNW visible
24 Dec 5.9 17:21:14 10° WSW 17:24:03 15° W 17:26:54 10° NW visible
